Home   Weather   Lódz   Past weeks

Flag for Poland Past Weather in Lódz, Poland — Yesterday and Last 2 Weeks

Now
52 °F

Fog.


Feels Like: 51 °F
Forecast: 42 / 62 °F
Wind: 3 mph from East

Location: Lodz

Current Time: Sep 26, 2016 at 12:34:11 PM

Latest Report: Sep 26, 2016 at 11:00 AM


Visibility: 3 mi

Pressure: 30.28 "Hg

Humidity: 89%

Dew Point: 49 °F

Location of LódzLocation

Past Weather in Lódz — Graph

°F

Lódz Temperature Yesterday

Maximum temperature yesterday: 67 °F (at 3:00 PM)
Minimum temperature yesterday: 35 °F (at 7:00 AM)
Average temperature yesterday: 50 °F

High & Low Weather Summary for the Past Weeks

 TemperatureHumidityPressure
High85 °F (Sep 11, 3:00 PM)100% (Sep 22, 9:00 AM)30.31 "Hg (Sep 22, 9:00 AM)
Low35 °F (Sep 25, 7:00 AM)35% (Sep 15, 5:00 PM)29.87 "Hg (Sep 17, 2:00 PM)
Average58 °F69%30.10 "Hg
* Reported Sep 11 11:00 AM — Sep 26 11:00 AM, Lódz, Weather by CustomWeather, © 2016

Note: Actual official high and low records may vary slightly from our data, if they occured in-between our weather recording intervals... More about our weather records

Advertising

Lódz Weather History for the Previous 24 Hours

Scroll right to see more
 ConditionsComfort  
Time TempWeatherWind HumidityBarometerVisibility
11:00 AM
Mon, Sep 26
52 °FFog.3 mph89%30.28 "Hg3 mi
10:00 AM49 °FFog.5 mph98%30.28 "Hg2 mi
9:00 AM48 °FFog.5 mph100%30.27 "Hg1 mi
8:00 AM47 °FFog.3 mph99%30.27 "Hg0 mi
7:00 AM46 °FFog.3 mph100%30.27 "Hg0 mi
6:00 AM42 °FFog.2 mph98%30.26 "Hg4 mi
5:00 AM42 °FFog.2 mph96%30.25 "Hg4 mi
4:00 AM43 °FFog.2 mph98%30.25 "Hg4 mi
3:00 AM40 °FFog.2 mph97%30.26 "Hg6 mi
2:00 AM40 °FClear.1 mph94%30.27 "Hg6 mi
1:00 AM41 °FClear.1 mph95%30.26 "Hg6 mi
12:00 AM42 °FClear.1 mph93%30.26 "Hg6 mi
11:00 PM
Sun, Sep 25
43 °FClear.1 mph92%30.26 "Hg7 mi
10:00 PM44 °FClear.1 mph91%30.25 "Hg7 mi
9:00 PM45 °FPassing clouds.1 mph84%30.25 "Hg12 mi
8:00 PM49 °FPassing clouds.1 mph74%30.24 "Hg12 mi
7:00 PM56 °FOvercast.2 mph60%30.22 "Hg12 mi
6:00 PM60 °FPartly sunny.5 mph49%30.22 "Hg12 mi
5:00 PM65 °FScattered clouds.5 mph41%30.20 "Hg12 mi
4:00 PM66 °FScattered clouds.2 mph39%30.21 "Hg12 mi
3:00 PM67 °FScattered clouds.2 mph39%30.22 "Hg12 mi
2:00 PM65 °FScattered clouds.3 mph40%30.23 "Hg12 mi
1:00 PM65 °FPartly sunny.3 mph42%30.25 "Hg12 mi
12:00 PM63 °FPartly sunny.2 mph50%30.26 "Hg12 mi
Weather by CustomWeather, © 2016

See weather overviewHow to use our weather pages